Regional Weather Roundup
Issued by NWS

Home | Current Version | Previous Version | Graphics & Text | Print | Product List | Glossary On
Versions: 1 2 3 4 5 6 7 8 9 10 11 12 13 14 15 16 17 18 19 20 21 22 23 24 25 26 27 28 29 30 31 32 33 34 35 36 37 38 39 40 41 42 43 44 45 46 47 48 49 50
000
ASUS43 KLMK 282110
RWRKY
KENTUCKY REGIONAL WEATHER ROUNDUP
NATIONAL WEATHER SERVICE LOUISVILLE KY
400 PM EST WED JAN 28 2015

NOTE "FAIR" INDICATES FEW OR NO CLOUDS BELOW 12,000 FEET
WITH NO SIGNIFICANT WEATHER AND/OR OBSTRUCTIONS TO VISIBILITY.

KYZ001>023-026-027-061>063-070>075-282200-
WESTERN AND SOUTH CENTRAL KENTUCKY

CITY           SKY/WX    TMP DP  RH WIND       PRES   REMARKS
PADUCAH        SUNNY     50  31  48 SE12      30.15F
HENDERSON      SUNNY     45  23  42 SE12      30.19F
OWENSBORO      SUNNY     44  20  38 SE13      30.22F
HOPKINSVILLE   SUNNY     48  23  37 SE9       30.20F
BOWLING GREEN  SUNNY     46  18  32 SE9       30.25F
GLASGOW        SUNNY     44  18  35 S8        30.24F
$$

KYZ024-025-028>034-038-045-046-053-282200-
NORTH CENTRAL KENTUCKY

CITY           SKY/WX    TMP DP  RH WIND       PRES   REMARKS
LOUISVILLE/SDF MOSUNNY   41  13  31 SE10      30.26F
LOUISVILLE/LOU SUNNY     40  14  34 VRB6      30.26F
FORT KNOX      SUNNY     40  14  35 SE8       30.22F WCI  34
$$

KYZ035>037-039>044-047>052-055>060-089>105-282200-
NORTHEAST KENTUCKY

CITY           SKY/WX    TMP DP  RH WIND       PRES   REMARKS
LEXINGTON      SUNNY     36  19  50 S7        30.26F WCI  30
COVINGTON      PTSUNNY   36  18  48 S13       30.24F WCI  27
FRANKFORT      SUNNY     37  18  46 S9        30.26S WCI  30
$$

KYZ054-064>069-076>088-106>120-282200-
SOUTHEAST KENTUCKY

CITY           SKY/WX    TMP DP  RH WIND       PRES   REMARKS
JACKSON        SUNNY     36  18  48 E5        30.27F WCI  32
LONDON         SUNNY     40  17  39 VRB3      30.26F
SOMERSET       SUNNY     41  12  30 SE7       30.27F
MIDDLESBORO    SUNNY     42  20  40 E3        30.27F
MONTICELLO     CLEAR     43  14  31 S6        30.28F
$$




USA.gov is the U.S. government's official web portal to all federal, state and local government web resources and services.